Theta_e
320 319 319 319 318 318 318 318 318 318 318 318 318 318 319 319 319 320 320 320 320 320 321 322 324 326 324 325 327 334 360 357 343 346 346 344 340 338 331 329 328 327 327 331 331 332 332
319 319 318 318 318 318 318 318 318 318 317 317 317 317 317 318 319 319 319 319 320 320 321 323 325 325 323 319 339 334 338 342 344 347 346 343 339 338 335 329 327 329 329 329 330 331 331
319 319 318 318 317 317 317 317 317 317 317 317 317 317 317 317 318 318 319 319 319 320 322 324 325 325 321 322 340 340 342 342 348 348 342 346 344 338 337 328 331 330 325 327 329 330 328
318 318 318 317 317 317 316 317 317 317 317 316 316 316 317 316 317 317 318 318 318 321 323 325 326 323 322 328 338 339 344 344 348 349 347 347 346 340 336 336 328 326 323 318 325 329 328
317 317 317 317 316 316 316 317 317 316 316 316 316 316 316 316 316 316 317 317 319 323 327 326 322 319 320 330 328 338 345 340 344 346 347 346 342 335 332 325 323 323 316 318 321 329 327
317 317 317 317 317 316 316 316 316 315 315 316 316 316 315 316 316 316 315 316 323 321 323 324 322 318 323 320 327 336 343 343 339 341 339 338 335 326 326 323 313 317 317 320 317 324 324
316 316 316 316 316 316 315 315 315 315 315 315 315 316 315 316 316 315 317 324 318 317 321 314 318 320 324 328 331 332 338 338 335 335 328 333 325 320 323 325 324 319 320 318 323 326 323
316 316 315 316 315 315 315 315 315 314 315 315 316 315 315 316 315 315 315 321 324 325 317 319 318 320 327 327 321 328 336 326 328 324 329 327 321 326 327 326 322 319 319 320 324 325 325
315 315 315 315 315 314 315 314 314 314 314 314 315 314 315 314 314 314 317 320 328 328 316 318 318 318 321 325 322 322 329 326 323 321 323 321 323 328 325 323 319 320 318 320 319 324 324
314 314 314 314 314 314 314 314 314 314 313 314 315 314 314 312 313 324 319 325 327 328 310 313 315 316 319 321 317 327 328 325 322 317 320 321 326 324 322 320 321 314 321 318 319 318 313
314 314 313 313 313 314 313 313 313 313 313 313 314 314 313 312 315 320 326 328 329 325 302 316 317 324 319 316 318 320 328 324 318 318 318 316 320 321 321 319 323 317 320 318 318 316 314
313 313 313 313 313 313 313 313 313 313 313 313 313 313 312 321 319 320 327 328 325 309 301 314 317 314 312 315 315 320 321 324 324 318 319 318 324 324 323 323 323 323 319 317 317 316 308
313 313 313 312 312 313 312 312 312 312 312 312 312 311 311 320 320 325 325 323 308 304 316 314 314 316 313 311 312 315 315 314 312 310 310 315 316 322 325 318 323 320 315 306 305 306 306
313 313 312 312 312 312 312 312 312 312 312 311 310 310 315 321 322 324 323 314 304 311 312 319 317 315 311 312 311 312 312 310 315 315 311 309 307 316 320 319 316 316 316 309 303 302 305
312 312 312 312 312 312 312 312 312 312 312 310 309 325 323 327 324 324 317 307 308 313 317 315 316 311 310 311 311 311 311 311 314 316 309 309 309 319 320 322 320 315 312 318 310 312 307
312 312 312 312 312 312 312 312 312 312 312 310 315 322 323 328 323 320 313 305 312 318 318 319 313 314 310 310 310 311 311 314 312 316 318 314 308 316 317 319 321 318 320 310 312 304 301
312 312 312 311 311 311 312 312 312 312 310 309 319 318 326 328 321 314 308 311 315 319 319 316 315 315 316 314 313 312 311 315 316 315 317 316 311 311 316 313 312 314 311 312 312 310 304
312 312 312 312 312 312 313 312 312 311 309 313 321 313 328 326 310 310 309 313 311 318 321 317 319 318 316 317 314 315 313 314 318 317 312 315 311 307 310 317 318 316 314 313 306 307 309
311 312 312 313 313 313 312 312 312 310 309 312 319 318 327 324 306 307 312 312 315 316 318 317 315 318 319 316 313 315 315 318 318 316 315 316 310 304 307 312 316 313 314 314 313 312 310
312 312 313 313 313 312 313 313 312 311 310 312 319 315 317 318 315 310 310 311 311 317 317 319 317 319 317 315 318 316 315 317 319 318 329 322 313 310 304 309 314 311 313 313 312 308 309
311 311 312 313 313 314 314 313 312 311 310 314 320 318 323 311 311 311 312 312 311 311 318 319 316 316 315 312 314 315 318 319 319 320 319 317 311 313 313 313 313 313 312 314 312 313 309
311 311 311 313 313 313 314 314 312 311 309 320 315 317 320 320 317 313 308 310 310 313 314 314 313 315 316 313 315 314 317 318 317 321 318 318 314 314 312 315 314 312 314 314 314 314 314
310 311 311 312 313 313 314 314 313 310 311 321 319 320 318 314 316 313 312 312 312 314 315 317 316 315 315 316 319 321 322 322 323 319 319 317 314 314 308 314 314 309 313 314 314 315 314
311 311 311 312 313 314 314 314 314 311 310 315 321 317 315 310 313 315 316 315 313 314 314 316 319 316 320 325 323 321 321 320 321 321 322 319 321 316 310 314 304 315 320 318 317 318 319
310 310 311 311 312 314 314 315 314 313 311 312 320 315 315 310 315 316 317 317 317 318 316 316 318 323 324 320 314 311 311 313 315 318 320 320 316 312 309 308 312 314 317 318 314 313 322
311 311 311 312 312 313 314 315 314 313 311 313 318 319 314 312 312 316 315 317 314 314 315 317 321 324 321 315 311 308 304 308 307 311 318 317 320 313 311 305 302 315 320 321 320 311 324
310 311 311 311 312 312 313 314 315 314 312 312 318 321 315 310 315 313 310 313 319 317 315 318 319 318 321 312 308 306 305 312 306 307 311 311 313 309 309 307 309 318 323 324 310 315 328
310 311 311 311 312 312 313 314 314 314 314 313 317 323 316 310 311 313 314 311 316 317 313 318 317 317 315 311 308 308 308 310 310 313 311 311 307 307 310 307 304 321 322 317 326 330 330
310 311 311 312 312 311 312 313 314 314 313 313 314 318 322 314 313 317 318 317 315 319 317 318 317 319 321 316 315 314 310 312 315 306 318 309 313 309 312 310 322 321 321 325 328 328 330
Wind_Speed
16 16 16 16 16 16 16 15 15 15 15 16 16 16 16 15 14 14 15 14 13 13 13 12 11 10 8 9 3 11 9 8 11 12 17 15 8 12 15 11 10 14 8 13 8 7 9
17 17 17 17 17 17 16 17 16 16 16 16 17 17 17 16 16 15 15 15 14 14 14 12 11 11 8 13 11 14 13 13 12 14 18 11 13 14 13 12 12 4 8 12 7 9 5
17 17 17 18 17 18 17 17 17 17 16 17 17 17 17 18 17 16 16 16 15 15 14 11 8 7 9 10 11 12 14 15 15 17 16 9 9 13 12 16 4 5 6 9 12 9 6
18 18 18 18 18 18 18 18 17 18 18 18 17 17 17 18 18 17 17 17 17 15 14 10 6 8 9 5 3 14 15 14 15 15 15 13 13 14 14 7 13 12 11 6 14 13 12
18 18 18 18 18 18 18 18 18 18 19 19 18 18 17 18 18 19 17 18 17 12 9 5 7 7 14 4 11 13 14 15 15 13 14 13 12 15 12 10 3 4 4 14 17 15 14
18 19 18 18 19 19 19 19 19 19 19 20 20 19 19 17 17 18 21 13 5 11 7 10 11 10 14 14 12 13 15 15 10 12 14 16 14 3 8 9 6 10 6 11 20 27 10
18 18 19 19 19 19 19 19 20 20 20 20 20 18 19 16 16 16 15 5 6 8 13 13 16 14 9 12 12 14 14 14 12 14 14 15 13 6 15 12 14 11 17 5 12 6 19
18 19 18 18 19 19 19 20 19 21 21 20 19 21 21 18 16 15 7 8 12 10 8 25 23 20 14 10 12 14 14 13 15 14 16 17 16 5 17 17 8 12 7 5 4 15 13
18 18 19 20 19 19 20 20 20 20 21 21 21 22 20 20 22 7 12 18 14 13 12 16 25 20 13 12 15 17 17 16 16 15 17 17 7 13 15 18 13 7 1 10 6 9 6
19 19 18 20 20 19 19 21 21 21 21 21 20 21 20 25 5 7 14 17 15 10 9 19 26 21 20 17 19 19 19 17 16 18 17 15 11 10 20 17 12 6 5 10 4 9 7
19 19 20 20 20 20 21 22 22 22 22 22 19 22 21 12 14 7 8 3 5 7 8 16 21 8 22 23 10 20 16 14 20 18 14 17 16 13 12 14 11 12 5 12 10 10 13
19 19 20 20 21 22 23 23 24 24 23 24 22 21 22 5 8 15 15 8 7 8 12 9 10 11 19 23 19 18 20 17 15 20 19 20 18 11 17 8 6 12 12 17 18 8 4
19 20 20 21 21 23 24 24 24 25 26 26 25 21 11 11 4 5 8 8 7 12 7 10 14 13 17 19 20 20 16 18 15 16 16 19 21 16 12 15 15 14 15 13 9 6 6
19 19 20 21 22 23 24 25 26 26 27 28 29 24 10 10 10 11 8 9 11 13 17 4 10 13 16 17 18 22 16 15 20 20 18 14 14 24 18 17 16 17 14 8 17 3 11
19 19 20 21 22 23 24 25 26 26 26 29 35 5 6 9 15 9 9 13 12 18 10 2 6 14 16 18 13 20 19 17 17 19 20 18 19 10 4 19 19 16 13 19 18 30 18
19 20 21 21 23 23 24 25 27 27 27 24 8 9 12 12 13 9 10 18 20 23 6 13 13 10 12 18 19 17 18 17 17 17 19 17 17 14 7 7 12 13 12 11 13 14 11
19 19 21 22 23 23 24 25 25 27 31 25 6 7 10 11 11 8 13 18 21 24 5 8 16 17 13 15 17 17 14 16 14 14 15 15 13 17 14 7 13 13 14 14 17 15 13
19 19 19 20 21 22 22 23 23 24 32 7 8 10 9 10 9 9 14 21 21 23 9 8 17 14 17 13 16 12 13 15 15 9 13 13 12 13 18 12 16 17 16 11 10 12 13
19 18 19 20 20 22 23 23 22 20 17 9 6 7 6 9 9 12 17 22 22 23 16 11 12 15 15 13 14 12 8 7 12 5 5 6 9 12 17 13 12 10 14 13 19 15 16
18 19 19 20 20 22 23 24 23 21 17 6 7 4 7 8 12 19 16 17 20 22 21 12 15 15 12 11 13 15 12 9 9 7 4 5 13 17 14 14 7 3 11 16 16 13 12
18 19 19 19 20 22 23 25 26 27 24 5 6 8 16 6 13 17 18 19 15 17 13 14 15 16 15 14 15 17 14 14 14 11 6 7 15 18 20 20 7 13 6 24 17 11 15
18 19 19 19 21 21 23 24 26 30 34 6 7 8 12 15 13 8 13 17 18 19 12 13 14 15 16 18 18 19 19 11 14 15 13 15 14 15 18 20 19 13 15 14 15 11 11
17 18 19 20 20 21 22 23 24 26 28 6 8 9 8 11 12 11 11 12 13 17 17 9 8 11 12 12 14 17 14 16 18 7 15 15 13 13 16 18 16 17 18 15 15 13 14
17 18 19 20 20 21 21 22 22 20 18 8 9 9 7 10 13 12 8 10 11 7 7 12 8 8 11 14 15 15 16 16 17 18 11 13 12 10 13 14 16 18 5 6 24 19 8
17 17 18 20 20 20 21 21 22 20 18 9 9 6 7 9 14 12 15 8 9 13 9 13 16 7 6 12 11 12 13 18 22 21 14 17 12 9 10 15 19 23 16 4 6 9 31
17 18 18 19 20 20 20 21 22 21 18 10 9 5 6 8 8 12 13 12 10 11 14 16 16 2 7 9 11 14 13 17 19 21 21 15 12 9 14 17 20 13 11 14 17 16 14
17 18 18 19 20 21 21 21 22 22 19 10 7 8 7 8 5 10 10 10 12 12 10 8 5 4 10 9 11 13 15 18 17 17 17 17 13 14 15 17 16 20 9 3 9 1 12
16 17 17 18 19 20 21 21 22 21 20 11 9 3 6 7 12 12 10 10 11 8 10 13 7 6 8 10 11 12 13 14 10 11 3 7 3 10 12 17 16 17 8 7 7 5 7
16 16 16 17 18 20 20 20 20 20 19 15 8 9 6 7 12 18 18 16 14 11 8 10 12 7 5 7 4 6 12 12 12 8 4 7 5 7 11 1 4 9 8 9 9 4 4
Wind_Direction
28 25 22 20 19 16 13 11 9 7 4 358 356 353 350 343 338 331 327 326 322 316 311 311 314 315 281 236 220 131 145 173 185 222 248 252 200 203 225 19 334 285 62 109 123 152 149
26 23 22 19 18 14 11 8 8 6 2 360 355 351 346 342 334 330 324 321 317 309 304 304 310 309 249 270 101 146 167 166 191 217 241 273 318 334 319 182 189 308 151 124 175 95 128
24 22 22 18 16 12 10 7 4 2 1 359 354 349 344 338 332 327 322 318 312 305 298 294 301 288 262 273 131 164 174 189 220 229 268 300 324 305 306 333 271 245 186 174 142 171 170
21 20 19 18 15 11 7 4 2 357 356 354 352 347 343 337 330 326 321 314 305 298 295 282 274 266 268 157 212 175 191 206 230 249 274 294 289 301 281 255 38 342 59 332 296 186 133
18 17 16 14 12 8 4 0 359 357 354 350 349 347 342 337 330 325 317 309 294 286 268 271 240 234 267 110 214 196 200 222 219 245 255 270 276 276 27 351 30 182 180 235 331 243 158
16 13 12 11 8 6 3 360 356 354 351 348 345 342 339 336 329 325 316 285 271 296 224 220 257 262 237 216 197 194 207 240 241 246 252 250 255 210 155 228 234 154 196 184 199 267 229
15 14 9 6 6 3 360 357 353 351 348 345 341 335 335 328 326 325 325 217 210 201 232 225 192 218 146 226 162 199 200 222 249 250 261 249 250 225 202 254 260 277 209 216 245 121 263
10 7 7 4 2 360 357 354 351 348 344 341 336 335 330 323 319 316 281 248 303 336 276 225 255 231 256 161 195 205 192 220 224 240 228 241 242 78 330 277 276 294 9 337 283 168 269
8 6 3 0 359 357 353 351 349 345 342 338 333 333 326 320 316 266 232 248 302 310 281 263 218 233 203 196 223 201 196 216 243 228 261 260 239 145 251 275 272 90 94 221 215 272 226
5 3 0 359 355 353 350 348 346 343 339 336 331 328 327 323 285 280 221 237 250 278 276 243 199 216 218 211 241 256 185 223 229 259 256 268 250 197 224 257 289 280 272 294 178 272 236
4 1 358 355 353 351 348 347 343 340 336 333 328 327 323 325 316 258 12 301 301 262 274 142 179 192 202 209 232 209 228 205 245 236 239 260 275 238 235 270 282 295 305 292 283 272 122
1 360 357 354 351 348 346 344 341 338 334 330 327 325 324 233 213 256 307 289 242 234 245 161 134 192 193 208 218 259 202 208 235 249 271 272 273 287 280 298 226 282 288 266 253 257 236
359 358 356 353 350 347 345 343 340 337 333 327 322 315 298 307 236 289 248 244 222 249 171 171 175 195 210 200 214 238 185 214 223 234 248 255 261 261 259 275 268 251 252 261 247 236 303
358 356 355 352 349 347 344 342 340 337 333 327 318 308 224 240 261 250 259 225 246 238 255 89 185 188 204 215 204 224 208 223 220 243 269 230 237 221 220 227 251 266 303 299 276 34 268
357 357 354 351 350 347 345 343 340 335 330 329 312 191 225 226 220 264 228 222 223 259 328 315 208 184 198 212 213 220 216 236 222 209 241 266 269 296 233 217 220 248 245 249 276 226 229
355 356 354 352 349 347 346 344 341 332 330 333 307 278 242 160 175 214 226 239 240 249 341 324 285 208 225 200 209 217 216 222 249 233 215 247 273 282 304 264 263 264 286 288 280 278 277
354 355 353 352 350 348 346 346 340 335 330 330 243 233 109 154 174 216 223 233 245 264 278 266 282 285 268 253 206 223 226 237 221 239 240 242 240 269 267 209 255 227 243 248 272 283 296
352 354 350 348 347 345 343 344 343 342 337 301 283 261 136 165 199 220 231 239 263 274 224 243 271 291 302 306 275 236 229 236 220 221 230 223 263 235 260 226 221 244 244 253 237 256 258
351 352 351 346 344 345 345 343 345 347 1 311 268 224 155 204 228 229 228 247 253 260 256 265 239 264 269 296 294 293 273 258 124 171 349 274 220 261 266 252 194 231 249 258 275 259 267
351 352 350 344 344 346 343 343 343 344 343 284 274 239 147 211 250 270 271 239 236 245 262 246 285 281 287 278 272 280 270 180 158 189 79 316 281 272 258 242 51 274 252 245 257 274 296
352 350 350 344 346 345 343 344 343 342 337 258 243 265 0 194 215 234 258 271 266 239 229 229 259 269 274 269 266 269 248 281 167 148 211 234 255 278 288 290 276 275 208 272 237 268 290
353 351 351 348 347 347 347 347 347 345 335 238 330 342 347 303 296 301 244 250 271 279 257 227 220 257 269 244 258 277 278 273 255 175 204 221 242 256 274 287 292 271 269 274 271 287 291
352 350 349 348 349 347 349 350 351 357 342 331 14 330 298 291 279 269 259 270 242 256 274 301 293 275 285 269 336 317 312 307 259 311 216 211 245 247 253 269 272 265 269 267 262 272 286
350 349 349 348 348 349 350 351 352 358 7 309 308 317 278 282 268 272 295 273 267 278 312 287 275 267 302 332 313 293 277 277 278 282 278 247 220 254 276 298 272 280 72 31 329 323 326
346 346 347 347 350 349 348 349 351 351 352 320 304 339 317 301 309 340 350 275 293 290 270 276 286 317 351 301 285 266 262 265 262 266 253 280 304 284 256 253 268 279 303 20 141 291 286
343 344 345 345 346 348 348 349 349 349 352 321 308 339 308 297 31 356 325 323 307 287 251 222 243 221 307 276 262 245 252 255 242 240 251 251 252 272 273 266 266 295 56 360 325 311 341
342 342 343 344 344 345 345 346 346 347 349 330 292 7 301 295 281 2 344 334 320 327 300 325 251 170 232 253 258 256 254 238 256 254 232 228 232 240 249 243 255 333 35 7 220 340 343
341 340 340 340 341 343 342 343 344 345 347 344 298 358 338 307 300 299 330 312 318 297 300 5 286 232 255 249 249 266 270 276 280 301 49 17 313 306 303 256 224 8 0 12 356 344 0
338 338 336 336 337 339 339 338 339 340 342 339 291 340 325 271 287 312 287 277 282 300 317 315 328 314 8 311 322 293 278 286 296 287 252 177 196 180 243 105 137 36 22 359 334 351 13